Location: Monroe
(41.3286°N, 74.1872°W)
Time: 19:41:17
(UTC+00:00)

ARIANE 6 FM1 Upper Stage - Pass Details

Date: 18 January 2026
Orbit: 522 x 609 km, 62.0° (Epoch: 6 February)

Event Time Altitude Azimuth Distance (km) Brightness Sun altitude
Rises 23:55:18 0° 188° (S) 2,721 6.4 -22.1°
Reaches altitude 10° 23:57:47 10° 175° (S) 1,815 5.3 -22.6°
Enters shadow 23:58:31 14° 168° (SSE) 1,575 4.9 -22.7°
